QIANFAN-53 (62254 NORAD) Tracking and Keplerian Element Data

This shows tracking and keplerian element data for the satellite.

Feedback or suggestion? Click here.




ElementValue
Catalog62254
NameQIANFAN-53
Epoch Orbit2560
Epoch Day34.76542114
Epoch Year2025
RAAN73.1827
Inclination88.9891
Eccentricity0.0016179
Argument of Perigee29.3199
Mean Anonmoly330.8896
Mean Motion14.20705233
Decay Rate4.52E-06
L11 62254U 24232T 25034.76542114 .00000452 00000+0 20289-3 0 9990
L22 62254 88.9891 73.1827 0016179 29.3199 330.8896 14.20705233 25606



Live tracking and technical data element details for QIANFAN-53 (NORAD 62254). QIANFAN-53 can be tracked NOW for your location showing map with azimuth and elevation plus other details from your city location.







IsCatalogInMostPopularTable: catalog: 62254, numindb: 18
Update: records affected: 1



GetName: 62254 QIANFAN-53

Hit Count: updated at: Sat, 24 May 2025 16:25:59 GMT